Theta_e
313 312 315 314 319 320 322 328 330 332 329 325 324 326 323 325 330 328 329 327 328 326 324 331 335 332 330 332 334 338 338 340 343 340 342 339 336 339 339 336 332 329 329 330 331 329 326 330 332 334 336 336 336 336 336 336 337 335 332 334 334 333 333 333 332 332 332 333 333 332 332 331 332 332 331 332 331 332 331 331 332 332 331 331 331 331 332 333 333 333 332 331 331 331 331 331 332
313 312 315 316 322 318 323 334 334 334 334 325 323 326 321 322 327 329 332 331 328 326 327 334 337 336 336 336 337 337 333 335 335 334 337 336 339 339 337 335 330 329 329 330 331 325 325 329 329 331 335 335 336 335 336 335 336 334 333 334 334 334 334 334 332 332 332 333 333 332 333 331 330 331 331 331 331 331 331 331 331 332 331 331 331 331 332 333 333 332 331 330 331 331 330 330 331
312 314 316 318 323 321 329 334 332 330 326 324 328 329 321 322 331 332 332 329 327 328 329 332 336 335 336 341 338 335 332 333 335 335 337 338 340 338 338 334 329 329 329 330 328 323 322 324 327 332 335 335 335 335 336 335 334 334 332 331 333 334 333 332 332 332 332 333 334 333 333 331 330 330 331 331 331 331 331 331 331 332 332 330 331 332 332 332 331 331 331 331 331 331 330 330 331
312 317 319 320 325 329 335 330 334 332 322 325 327 326 325 327 333 330 327 325 325 328 328 328 336 329 333 347 338 335 337 335 337 338 339 339 339 339 338 332 329 329 329 330 325 322 320 322 329 333 334 334 334 335 335 335 335 333 332 331 332 333 332 332 331 331 331 333 334 333 333 333 331 330 330 331 331 330 330 331 332 332 332 331 331 331 331 331 331 331 331 331 331 331 329 328 329
314 320 319 322 328 331 331 324 331 329 324 331 323 326 335 330 329 326 324 324 325 326 326 331 341 331 333 342 334 335 338 337 338 337 339 339 339 339 336 331 329 329 329 328 324 321 319 323 329 331 333 334 334 335 335 335 335 334 334 333 331 332 333 332 331 331 330 332 333 332 332 333 333 332 330 331 331 329 328 330 331 331 331 330 331 331 331 332 332 331 331 331 331 330 329 327 327
317 321 321 321 322 324 328 322 325 327 331 333 324 331 335 326 326 328 325 325 327 326 327 336 342 339 341 339 333 336 335 337 338 336 339 338 339 339 335 330 329 331 329 327 325 321 319 324 328 330 333 334 334 334 336 335 335 335 336 334 331 333 333 331 331 331 330 331 332 332 332 333 333 333 332 330 330 330 329 328 329 330 330 329 330 332 331 332 331 331 331 330 330 330 329 327 327
317 319 324 325 322 325 331 325 329 335 331 325 328 334 327 324 327 329 327 325 326 325 331 338 339 343 343 336 333 335 334 336 336 337 339 338 339 338 333 330 330 331 329 328 325 321 319 322 325 329 331 333 334 334 335 335 335 335 335 334 332 333 333 331 329 329 330 330 331 332 332 332 333 333 332 330 329 329 328 328 327 329 330 329 330 331 331 331 331 330 330 330 330 330 329 327 327
319 322 328 331 327 328 330 327 332 337 325 317 326 329 323 326 326 328 329 327 326 327 334 333 335 343 338 335 338 336 333 334 335 338 338 338 339 337 333 330 331 331 330 328 326 322 320 321 321 325 329 331 331 332 334 335 335 335 335 335 334 334 331 329 326 327 329 330 330 331 332 331 332 332 331 329 328 328 328 329 329 329 328 328 330 331 330 330 330 329 329 329 329 328 328 327 327
320 322 327 329 325 326 328 326 325 328 323 320 324 324 322 324 325 328 328 327 326 328 331 327 329 334 336 342 344 335 333 335 336 338 338 339 339 336 332 330 330 331 331 329 326 323 321 321 318 320 325 327 328 331 334 335 335 334 334 334 335 334 331 328 325 324 328 330 329 330 332 331 331 331 331 330 329 329 329 330 329 329 328 328 329 330 330 329 329 328 327 328 327 327 327 327 327
321 321 326 328 324 322 324 327 327 325 320 321 324 324 324 323 324 325 326 327 325 326 328 331 335 333 340 348 344 335 334 337 338 338 339 339 339 336 332 330 329 330 331 329 327 323 321 321 318 318 319 321 325 330 333 334 335 334 334 334 335 334 331 328 326 324 326 330 330 329 331 331 331 331 331 329 329 329 329 330 329 329 329 328 328 329 330 329 328 328 327 327 327 327 327 327 326
327 330 331 328 324 321 321 328 336 334 320 319 323 324 324 322 322 322 324 324 322 327 328 334 344 340 343 346 341 336 333 337 339 339 339 339 338 336 332 331 329 329 331 330 327 324 322 321 319 318 318 319 322 328 332 332 334 333 334 334 335 334 331 328 326 326 326 328 329 329 330 331 331 330 330 329 329 329 329 329 329 329 329 328 327 329 330 329 328 327 327 327 327 327 327 326 326
326 334 340 331 326 324 324 329 336 336 322 322 323 323 324 320 321 322 323 324 323 328 327 331 339 342 347 346 339 334 333 338 339 338 339 339 338 336 333 331 329 329 331 330 328 325 322 321 320 319 319 319 320 326 331 331 333 333 333 334 334 334 331 328 324 324 327 328 328 328 329 331 330 329 329 329 329 329 328 328 328 328 328 328 327 328 329 329 327 326 327 327 327 326 326 326 325
331 336 336 326 327 326 325 327 330 328 321 325 325 321 320 318 320 322 324 324 324 326 323 326 335 344 348 343 339 334 334 337 338 339 339 339 338 336 333 332 332 330 330 331 329 326 324 322 321 320 320 320 320 324 328 330 331 332 332 333 333 332 329 327 323 322 326 328 327 327 328 329 328 327 328 329 329 328 328 327 327 327 327 327 327 327 327 327 325 325 327 326 326 325 325 325 324
333 338 334 323 326 329 328 326 323 322 321 325 321 318 318 318 320 320 322 323 323 323 319 324 335 345 343 339 341 337 335 336 338 340 339 339 338 336 334 335 336 331 329 330 329 327 325 323 322 321 320 320 320 321 324 325 327 331 331 330 329 327 324 323 321 319 323 325 326 326 328 328 326 326 328 328 326 326 326 326 326 326 326 327 327 326 325 324 324 325 326 326 326 325 324 324 324
325 340 341 329 326 326 326 323 319 321 323 323 317 319 319 316 318 319 321 324 323 319 317 323 329 333 335 343 349 338 334 336 338 340 339 338 337 337 337 337 338 334 330 330 330 328 326 325 323 322 321 321 320 320 320 321 323 326 326 325 323 321 320 320 319 318 319 321 324 326 327 327 327 327 327 326 325 325 324 324 325 325 326 327 327 326 324 323 324 325 326 326 325 324 324 324 323
327 341 336 329 327 323 323 320 318 320 322 322 315 318 320 315 317 319 317 319 319 322 329 328 324 326 331 342 346 335 334 336 337 339 338 338 338 338 338 338 339 336 332 330 331 330 327 325 324 323 322 322 321 320 320 320 321 322 321 320 319 319 318 318 318 317 318 319 321 325 325 326 327 328 327 326 325 325 324 322 323 325 325 326 327 326 325 324 324 325 325 325 325 323 323 323 323
325 333 329 327 328 325 324 320 318 321 324 322 316 317 320 316 315 316 316 321 323 329 341 335 326 331 333 334 332 332 335 335 336 338 338 338 338 338 338 338 338 337 333 331 331 330 329 327 325 324 323 322 322 321 320 320 320 321 321 319 318 318 318 317 317 317 317 316 318 321 323 324 325 326 326 325 325 325 323 321 320 322 324 324 326 326 325 324 324 325 325 325 324 323 323 323 323
320 326 327 326 330 328 327 323 319 321 322 320 318 319 320 318 315 315 319 328 331 332 341 338 334 333 330 330 329 333 336 334 336 337 337 337 337 338 337 337 336 336 333 332 332 331 331 328 327 326 325 324 322 322 321 321 320 321 321 320 318 318 318 318 317 316 316 315 315 317 319 320 322 324 325 325 325 324 323 321 320 320 320 320 323 324 324 324 325 325 325 325 324 323 323 324 323
323 328 324 327 334 330 325 322 318 318 319 318 318 320 319 319 317 316 320 328 329 331 339 338 342 341 333 332 331 334 334 334 336 335 337 337 337 337 336 336 335 335 333 333 332 332 331 330 329 327 327 326 324 323 321 322 321 321 320 320 319 318 318 318 318 317 316 314 314 315 317 318 319 321 323 323 323 323 324 322 320 319 318 318 320 323 323 324 324 324 325 325 325 324 324 324 323
325 323 320 331 334 328 323 319 317 316 317 317 318 318 317 318 317 315 321 326 324 327 338 339 346 348 338 333 331 333 334 333 334 335 336 336 337 337 336 336 334 334 333 332 331 331 332 330 329 329 328 328 327 325 323 322 322 322 321 320 319 318 318 318 318 318 316 316 315 315 317 317 318 318 320 320 321 321 322 323 321 319 317 317 319 321 322 322 323 324 324 324 325 324 324 324 324
319 317 320 330 325 321 321 316 315 316 315 316 317 317 316 316 315 315 321 324 322 323 330 337 347 347 336 332 331 332 333 332 333 334 335 335 336 336 336 335 334 334 333 333 331 330 330 330 329 329 329 329 329 328 326 324 323 323 322 322 321 320 319 318 318 318 317 319 319 318 317 319 319 318 318 318 318 318 319 321 321 319 317 316 316 318 319 320 321 322 323 323 323 323 323 324 324
317 318 319 324 320 316 318 316 314 315 316 316 317 318 317 315 314 317 321 322 321 320 323 331 340 338 332 333 332 332 332 332 332 332 333 335 336 336 336 335 334 334 333 333 331 329 329 328 328 328 329 329 329 329 328 327 325 324 323 322 322 321 320 319 319 319 319 320 321 320 320 321 322 321 320 319 318 316 316 317 319 319 318 317 316 316 317 317 318 319 321 321 321 321 321 322 323
321 324 318 320 318 315 317 316 314 315 316 318 317 317 316 316 315 316 319 319 319 319 320 330 334 331 331 332 331 333 333 332 332 331 332 334 335 335 335 335 334 334 334 334 333 331 328 327 327 327 328 329 329 330 330 329 328 327 325 324 323 322 322 321 320 319 319 321 322 322 321 321 323 323 322 321 320 317 315 314 315 317 317 317 316 316 316 316 317 319 320 321 321 320 320 321 321
320 322 318 319 316 315 318 316 317 316 317 317 315 315 316 318 317 314 315 318 319 314 313 324 330 329 331 331 332 333 332 332 332 332 333 333 334 335 335 335 334 334 335 335 334 333 331 329 328 328 328 328 329 330 330 330 330 329 328 326 325 324 323 323 322 321 320 321 322 323 322 322 322 323 323 323 320 318 318 315 313 314 315 317 317 317 317 316 317 319 321 321 321 321 321 321 321
318 319 318 318 316 318 318 315 317 315 315 316 313 315 316 315 313 313 316 317 316 313 316 327 330 329 331 332 333 332 331 331 332 332 332 333 334 334 334 334 334 335 335 336 335 334 333 332 331 331 330 330 330 329 330 331 331 331 329 328 327 326 325 324 323 322 321 321 323 324 324 323 323 323 324 324 322 319 319 318 314 314 315 317 318 318 318 317 317 319 320 321 321 321 321 321 321
316 318 316 315 316 318 316 314 316 315 315 314 315 316 314 313 311 315 318 316 317 319 328 335 331 332 333 332 333 330 330 331 331 332 332 333 333 333 333 334 334 335 335 336 336 335 334 334 333 333 332 333 332 331 330 331 333 333 332 330 328 328 327 326 326 324 323 322 323 324 324 324 324 324 325 325 324 320 319 320 318 317 318 318 318 318 318 319 318 319 319 320 320 320 320 320 320
313 316 315 312 315 317 315 314 315 316 314 313 316 316 314 314 312 316 317 317 321 326 335 334 331 334 333 332 332 330 330 330 331 331 331 332 332 332 333 333 334 335 335 336 335 335 335 335 334 333 335 336 335 334 331 331 334 334 334 332 330 330 329 328 328 327 326 324 323 324 325 325 325 326 326 326 326 322 320 320 321 320 320 320 320 320 320 319 319 319 318 318 318 319 319 319 319
312 314 314 313 315 315 314 314 315 315 313 314 316 314 315 314 313 317 314 316 323 331 337 332 332 334 331 333 332 329 330 330 331 331 331 331 331 332 332 332 333 334 335 335 335 335 335 335 334 334 334 336 336 336 334 332 333 334 335 334 333 332 331 330 330 329 328 326 324 324 324 325 326 326 327 327 326 324 321 321 322 321 321 321 322 322 321 320 320 320 319 318 316 316 317 319 319
314 313 312 315 314 314 315 314 315 314 313 315 315 314 315 315 315 316 313 317 327 333 337 333 332 333 331 332 331 330 330 330 331 330 330 331 331 333 332 333 333 333 334 334 335 335 335 335 334 334 334 336 336 335 336 334 334 334 335 335 334 333 332 331 331 331 330 328 326 324 324 325 325 326 327 327 325 324 324 323 323 322 322 322 322 322 322 322 321 321 320 320 318 315 315 318 318
317 314 312 315 314 315 315 313 314 314 314 315 313 315 319 317 315 314 313 322 330 333 337 333 331 332 331 331 331 331 329 329 330 329 331 331 331 332 332 333 333 333 334 333 335 334 335 335 334 334 334 335 335 335 335 335 335 334 335 335 334 333 333 332 332 332 331 330 328 326 325 325 325 326 326 326 325 325 325 325 325 325 324 323 323 323 323 322 322 321 320 320 319 316 316 317 317
319 316 312 315 316 319 318 313 315 314 313 314 312 314 318 317 316 313 313 321 329 331 334 330 330 331 331 332 331 331 329 328 329 329 331 330 331 331 331 332 332 333 333 333 334 333 334 334 334 335 334 335 335 335 335 335 335 335 335 335 335 334 333 333 332 333 332 331 330 327 327 326 325 326 326 326 326 326 326 326 326 326 325 324 324 323 323 323 322 321 321 320 319 318 317 317 317
316 314 315 316 314 321 322 315 315 315 313 312 312 314 316 315 317 314 310 315 324 326 329 327 328 329 329 331 330 331 330 327 328 329 330 330 330 331 331 331 331 332 333 333 333 333 334 333 334 334 334 334 334 335 335 335 336 335 336 335 335 335 333 333 333 332 332 332 331 330 329 328 327 327 326 326 326 326 326 326 326 326 325 325 324 324 323 323 323 321 321 320 320 320 320 320 319
314 313 319 320 315 318 319 314 314 316 314 312 312 315 317 315 313 312 309 313 319 322 324 325 325 325 326 329 329 329 329 328 328 327 329 329 330 330 330 331 331 332 332 332 332 332 333 333 333 334 333 334 334 335 335 335 336 335 336 336 336 335 334 334 333 333 333 332 332 331 330 329 329 328 327 327 326 326 326 326 326 326 326 325 325 324 324 324 323 322 321 321 321 322 322 322 321
315 312 316 320 316 315 315 314 314 314 314 313 313 314 316 315 313 313 311 311 314 317 319 320 322 321 322 324 326 327 328 328 327 326 328 329 329 330 330 331 331 331 331 332 332 331 332 333 333 333 333 334 334 335 335 335 336 335 336 336 336 336 335 334 334 334 334 333 333 332 332 330 330 329 329 328 327 327 327 326 326 326 326 325 325 324 324 324 323 322 322 323 322 322 322 322 322
315 313 313 316 314 313 315 315 314 313 313 313 314 314 314 314 314 313 311 310 313 315 313 313 316 317 317 319 321 323 325 326 325 325 327 328 329 329 330 331 330 330 331 331 331 331 331 332 332 332 333 333 334 334 335 335 335 336 336 336 336 336 335 335 334 334 334 334 333 333 333 332 331 330 330 329 328 328 327 327 327 326 326 325 325 324 324 324 323 323 323 323 323 322 321 321 321
316 316 314 316 315 313 315 317 314 312 313 314 314 314 314 313 314 314 311 309 312 313 311 311 312 312 312 313 315 317 320 322 322 322 324 326 328 329 329 330 330 330 331 330 331 331 331 331 331 332 332 332 333 334 334 335 335 336 336 336 336 335 336 335 335 335 334 334 333 333 333 332 332 331 330 330 329 328 327 327 327 327 326 325 325 324 325 325 324 323 323 323 323 322 321 321 321
313 315 313 315 315 313 315 317 314 312 313 314 313 313 314 313 313 314 311 309 311 313 313 312 311 310 310 311 312 313 315 316 317 317 319 322 325 327 329 329 330 330 330 330 331 331 331 331 331 332 332 332 332 333 334 334 334 335 335 335 335 335 335 335 335 335 334 334 333 333 333 333 332 331 331 330 329 329 327 326 326 326 327 325 325 325 325 326 324 323 323 323 323 322 322 322 322
311 313 313 314 314 314 314 315 314 313 313 315 315 313 313 312 312 312 310 309 312 313 313 313 311 310 310 310 311 311 311 311 311 313 315 318 321 324 327 328 329 330 330 330 330 331 331 332 332 332 332 332 332 332 333 333 334 334 334 334 334 334 334 334 335 335 334 334 333 333 333 333 333 332 331 330 330 329 328 327 326 326 326 326 326 325 325 325 324 324 324 323 323 323 322 322 322
311 312 314 315 314 313 314 314 314 312 312 317 317 313 314 313 311 312 311 311 313 312 312 312 312 312 311 310 310 309 310 311 311 310 311 314 318 321 324 327 328 329 330 330 330 331 331 331 332 332 332 332 332 332 332 333 333 333 334 334 334 334 334 334 334 334 334 334 333 333 333 332 333 332 332 331 329 329 328 328 327 326 326 326 326 326 325 325 324 325 324 323 324 322 321 321 322
311 312 314 315 315 313 313 313 313 312 313 316 316 314 315 313 311 312 311 310 311 312 311 311 312 313 313 312 310 310 310 310 311 311 310 311 315 319 322 325 327 328 328 329 330 331 331 331 332 332 332 332 332 332 332 333 333 333 333 334 334 334 334 334 334 334 334 334 334 334 333 333 333 333 333 331 329 328 328 328 327 327 326 325 325 325 325 325 325 325 324 324 324 322 320 321 323
311 312 313 316 317 315 313 313 313 313 313 313 314 315 316 316 314 314 313 311 310 310 311 312 312 313 312 312 312 311 311 310 310 311 310 309 311 317 320 323 325 327 328 328 329 330 331 331 331 332 333 333 333 332 332 332 332 333 333 333 333 333 333 333 333 333 333 333 334 334 334 333 333 333 333 332 330 329 328 328 327 327 327 326 324 323 323 324 325 325 324 325 324 324 322 321 321
312 313 313 315 317 316 315 315 313 313 315 315 313 315 323 326 321 316 315 314 312 310 310 311 311 311 311 311 311 311 311 311 310 310 310 307 308 313 318 321 323 325 327 327 328 329 330 331 331 332 332 333 333 333 333 333 332 332 332 332 332 332 332 332 332 333 333 332 332 333 333 333 333 333 333 332 332 330 329 328 328 328 328 327 325 323 322 323 324 325 324 324 324 325 324 320 320
311 315 314 314 315 316 318 317 315 316 318 315 311 315 324 324 320 319 318 318 318 314 312 312 310 309 310 310 310 310 310 311 311 310 309 307 306 309 313 318 322 324 325 326 327 328 329 330 331 332 332 332 333 333 333 333 332 332 332 332 332 332 332 332 332 332 332 332 332 332 332 332 332 332 333 332 332 331 331 330 329 329 329 328 327 325 324 323 324 325 325 325 325 325 323 320 319
314 319 318 317 315 318 321 318 317 320 317 315 315 317 317 315 315 318 317 317 320 317 315 315 312 309 309 310 310 310 310 310 311 312 311 307 305 306 310 315 320 323 324 325 326 328 328 329 330 331 332 332 333 333 333 333 332 332 332 332 332 332 332 332 332 331 331 331 331 331 331 331 330 330 331 332 332 332 331 331 330 329 329 328 326 324 325 325 325 326 326 325 325 325 323 321 320
318 322 320 319 318 321 322 317 317 319 315 317 319 315 314 319 322 321 316 314 317 319 317 318 316 312 311 310 309 309 310 310 310 312 311 307 304 306 308 311 316 320 322 324 325 326 327 328 329 330 331 332 332 332 333 332 332 332 332 332 332 332 332 332 331 331 331 331 330 331 330 329 329 329 329 330 331 331 331 331 331 329 329 328 326 323 323 325 325 325 325 325 325 325 324 323 322
317 320 320 321 322 322 318 318 319 316 313 318 321 315 313 322 328 323 315 312 316 318 316 316 315 314 313 312 311 310 309 310 310 311 308 305 305 306 308 309 311 315 319 322 324 325 327 328 329 330 330 331 331 332 332 332 332 332 332 332 332 332 332 331 331 330 330 330 330 330 329 329 329 328 328 328 329 330 330 330 330 330 327 326 326 325 325 325 324 323 323 324 325 325 324 324 323
316 318 321 319 324 324 322 326 324 314 314 319 321 317 312 318 326 320 314 316 318 316 313 313 312 315 317 317 317 313 310 309 310 311 306 303 304 306 307 308 309 311 314 318 322 324 326 327 328 329 330 330 331 331 332 332 332 332 332 332 331 331 331 331 330 330 329 329 329 329 329 329 328 328 328 328 328 329 330 329 330 330 328 325 325 325 325 325 324 322 322 324 324 324 323 323 321
317 322 322 317 324 325 323 328 323 314 317 318 318 317 312 315 321 319 316 318 317 312 311 313 314 319 321 324 328 323 316 310 309 312 310 307 308 308 307 308 308 310 311 314 318 322 324 326 327 328 328 329 330 330 331 331 331 332 332 331 331 331 331 330 330 330 329 329 329 328 328 328 328 327 327 328 329 329 330 330 328 327 327 327 326 325 323 322 322 322 323 324 324 323 323 322 321
317 322 319 315 320 319 318 323 319 317 317 313 313 315 313 314 316 317 316 313 312 310 310 313 317 320 320 324 334 332 323 315 313 315 315 317 317 310 307 309 309 309 310 312 315 319 322 324 325 327 328 328 329 329 330 331 331 331 331 331 331 331 331 330 330 329 329 329 328 328 328 328 327 327 327 328 329 328 329 330 328 325 326 328 328 327 325 323 323 324 324 324 324 323 322 320 319
315 317 316 317 321 316 316 319 316 318 318 312 311 314 316 316 315 317 316 311 311 311 309 311 314 316 316 322 330 330 326 321 319 317 319 322 317 308 307 310 310 310 310 311 313 317 320 322 324 326 327 327 328 329 329 330 330 331 331 331 331 330 330 330 330 329 330 329 329 328 328 328 327 327 328 328 329 329 328 328 328 327 326 326 327 328 326 326 325 324 323 322 322 321 320 319 318
315 317 317 321 324 319 318 319 320 323 321 314 311 314 321 320 317 318 316 312 313 312 312 312 311 311 313 318 326 329 326 325 324 323 325 322 310 306 310 311 311 311 311 311 312 314 317 319 322 324 325 326 327 328 329 329 330 330 330 330 330 330 330 330 330 329 329 329 329 329 328 328 328 328 328 328 329 329 328 327 327 328 328 326 326 327 326 325 324 322 321 321 321 320 318 317 316
316 320 318 318 322 324 322 319 324 328 322 317 313 316 324 321 314 314 312 312 314 313 314 314 313 314 313 318 326 329 327 327 327 328 332 323 307 306 311 311 312 313 311 312 311 312 314 315 318 320 322 325 325 327 328 329 330 330 330 330 330 330 330 329 330 329 330 330 329 329 328 328 328 328 329 329 329 329 329 328 327 326 327 326 325 324 323 322 321 320 320 320 319 318 317 315 315
315 315 318 317 317 324 323 314 316 319 316 318 315 316 323 318 313 316 314 313 315 314 315 316 316 317 316 319 325 328 329 329 327 328 332 324 309 309 313 312 314 314 313 312 311 311 312 312 314 315 317 320 322 324 326 326 329 329 329 330 329 330 330 329 330 329 330 330 329 329 328 328 328 328 329 329 329 329 328 326 326 324 323 323 322 322 321 320 319 319 319 318 317 316 315 313 312
315 315 318 317 314 320 323 315 316 316 315 322 319 315 320 317 317 326 320 313 315 315 316 316 315 316 316 319 323 325 327 326 325 327 327 318 310 311 315 314 315 315 314 312 310 310 311 310 312 312 313 316 318 321 323 323 325 326 328 329 329 329 330 329 330 330 330 329 329 328 327 327 327 327 328 327 327 327 325 323 323 323 322 321 320 320 320 319 318 317 316 316 315 314 314 312 310
315 317 317 316 316 318 317 315 317 315 314 324 323 315 317 317 319 325 318 313 317 315 314 315 316 316 317 319 320 321 322 322 325 329 329 320 311 312 316 316 315 315 314 314 312 312 311 310 311 311 312 314 317 320 322 323 324 324 326 327 328 329 329 329 329 329 328 328 327 326 326 326 326 326 326 326 326 325 323 322 323 322 322 321 320 319 317 316 314 313 313 312 311 312 311 309 308
313 314 312 313 318 320 318 316 317 316 315 322 321 315 318 319 317 319 316 314 317 314 314 317 317 317 317 318 319 319 319 321 327 331 329 321 312 311 316 316 315 316 315 315 314 313 312 311 310 310 311 312 315 319 322 323 324 325 325 326 327 327 327 328 327 327 327 326 326 326 325 325 325 324 324 323 323 322 322 321 321 321 320 319 318 316 313 311 310 311 311 310 310 309 308 307 306
314 314 312 312 313 317 319 316 317 321 321 322 319 314 320 322 315 314 315 313 314 315 317 320 318 316 315 314 317 318 319 322 327 329 326 318 310 310 314 315 315 316 316 316 316 315 315 314 312 311 310 311 314 319 322 324 324 325 325 325 326 326 326 326 326 325 325 325 325 324 324 323 322 322 321 321 320 320 319 319 318 317 317 316 315 313 310 310 310 310 310 310 309 307 306 304 302
315 315 314 314 316 318 317 314 316 319 319 321 319 312 318 323 314 311 314 312 311 312 315 322 324 321 318 313 313 318 321 322 323 324 323 315 308 308 312 314 315 316 316 317 318 317 317 315 314 313 312 313 315 319 322 323 324 324 324 324 324 325 325 324 324 324 324 323 323 323 322 322 321 320 319 319 319 318 317 316 315 315 314 314 313 311 310 309 308 308 307 305 304 302 300 297 294
Wind_Speed
11 9 9 8 7 4 3 5 2 3 3 2 2 1 2 3 2 2 3 1 1 1 1 2 4 4 3 5 7 6 4 4 5 4 3 3 12 23 18 17 20 19 19 17 14 12 13 15 15 14 12 11 11 13 15 16 18 16 16 17 16 16 15 15 15 16 15 16 16 17 17 16 17 18 18 18 18 18 18 19 19 19 19 19 18 18 19 18 18 18 17 18 19 19 20 20 20
11 9 7 5 6 4 1 3 3 3 5 2 3 2 2 1 2 4 6 4 3 2 2 6 7 7 6 7 6 4 3 1 3 3 1 7 18 20 16 18 21 20 19 17 15 13 14 15 15 16 13 11 11 13 14 15 18 16 15 16 16 15 14 15 15 15 15 15 16 16 16 16 18 18 18 18 18 18 18 19 19 19 18 18 19 19 18 18 17 17 18 18 18 19 19 20 20
11 8 7 3 3 5 1 4 2 1 4 1 4 3 1 2 5 6 7 5 6 7 4 4 6 4 5 5 3 3 1 3 2 2 3 14 16 15 18 19 21 20 19 18 15 13 13 14 15 16 14 12 11 13 14 15 17 15 15 16 16 14 14 15 15 14 13 14 15 15 15 17 18 17 17 17 17 17 18 18 18 18 18 18 19 19 18 18 17 17 18 18 18 18 19 19 19
9 8 7 2 2 4 3 4 2 3 1 3 2 4 2 5 7 6 6 4 6 6 2 2 4 2 3 5 2 2 2 1 3 2 5 14 14 18 21 21 22 20 19 17 15 13 12 14 16 16 14 12 11 12 14 15 15 15 15 15 15 14 15 15 14 14 14 13 13 14 14 15 17 17 17 17 17 17 17 18 18 18 18 18 19 19 18 18 17 17 17 17 17 18 19 19 19
7 5 7 4 3 2 3 2 2 3 2 3 2 5 4 6 7 5 3 3 3 2 2 3 3 2 2 4 1 1 2 2 3 3 8 13 16 22 22 23 22 20 19 17 15 13 13 16 17 17 16 13 11 12 13 14 15 15 15 14 14 14 14 14 14 14 14 13 13 13 13 14 15 16 16 16 16 16 16 17 17 17 17 18 19 19 18 17 17 17 17 17 17 17 18 18 18
4 3 7 6 3 1 3 0 1 1 4 5 3 5 5 7 7 7 4 2 5 4 3 3 4 2 2 1 1 3 2 2 4 6 12 15 19 23 23 24 22 20 19 17 16 14 15 16 16 18 16 13 12 12 12 13 14 14 14 14 14 14 14 13 14 14 14 13 13 13 12 13 14 14 15 15 15 15 15 15 16 17 17 18 18 17 17 17 16 16 16 16 17 17 17 17 16
5 1 4 6 2 2 3 1 3 3 4 5 4 5 6 7 7 8 6 2 2 3 1 2 5 6 2 2 1 2 1 2 4 9 15 18 22 23 24 24 22 21 19 18 16 15 15 15 16 17 16 15 13 12 13 13 13 13 14 14 13 12 12 12 13 14 14 13 12 12 12 13 13 13 14 13 13 13 14 14 15 16 16 17 17 16 16 16 16 16 16 16 16 16 16 16 17
6 1 1 4 1 3 4 2 3 3 3 4 4 5 8 8 7 8 7 4 2 2 2 3 3 6 0 2 2 2 3 2 5 11 18 20 24 24 24 23 22 22 19 18 16 15 15 15 15 15 16 16 14 14 13 13 13 13 13 14 12 10 10 11 12 13 14 12 11 12 12 12 12 12 11 11 11 12 13 14 14 14 15 16 16 15 15 15 15 16 16 16 16 16 16 16 16
5 3 0 3 2 1 2 1 3 3 4 4 4 4 6 7 5 7 7 2 2 3 3 5 2 4 2 3 1 4 3 5 8 14 18 21 25 24 25 23 22 22 20 18 16 16 15 15 14 14 14 15 14 14 13 13 13 13 13 13 12 10 9 9 10 12 14 13 12 12 11 11 11 11 10 10 12 13 13 13 13 13 14 15 15 15 14 15 15 16 16 15 15 15 15 15 15
4 3 1 2 2 1 2 2 3 3 5 5 4 4 5 5 4 4 5 4 4 5 3 3 3 4 5 2 1 2 2 11 14 17 20 23 25 24 25 23 22 22 21 19 17 16 15 14 13 13 13 13 14 14 13 14 13 13 13 12 11 10 8 8 8 10 12 13 12 12 11 11 11 10 10 11 12 12 12 12 13 13 13 13 14 14 13 14 15 16 15 15 14 14 14 14 14
2 4 2 3 3 2 3 3 4 4 5 4 2 3 5 5 4 1 1 3 2 4 4 1 4 4 5 0 2 1 4 15 19 21 24 24 24 24 24 22 21 20 21 20 18 16 15 15 13 12 12 12 13 13 14 14 13 13 13 12 11 10 8 7 7 8 10 12 11 11 11 11 11 10 10 11 11 11 11 11 12 12 12 12 13 13 13 13 14 16 15 15 14 13 12 12 12
2 4 4 3 2 3 3 2 5 5 6 3 2 3 4 5 4 3 4 5 3 4 5 3 4 5 5 1 2 1 7 18 21 24 26 24 24 23 23 22 20 20 20 19 18 17 15 14 13 12 12 12 12 13 14 14 13 13 13 11 10 9 7 6 6 8 10 11 10 10 12 11 10 9 9 10 10 10 10 11 11 11 11 11 12 13 12 12 13 15 14 14 14 12 11 11 11
3 1 4 2 3 2 3 2 4 3 5 3 4 2 5 5 3 7 6 5 5 5 4 5 7 6 3 2 2 1 8 18 22 25 26 25 24 22 22 21 19 19 20 19 18 17 16 15 13 12 12 12 12 13 13 14 14 14 13 12 11 9 8 7 7 9 11 11 10 11 12 10 9 9 9 10 9 9 9 10 10 10 10 10 11 11 12 12 14 15 14 14 13 12 11 10 10
2 3 4 2 0 2 4 1 2 1 4 5 3 2 5 3 3 6 6 6 5 4 2 4 8 6 2 1 2 2 9 18 24 27 27 25 24 22 22 21 19 20 20 19 19 18 17 15 14 13 12 12 12 12 12 12 13 14 13 12 11 9 8 8 7 9 10 10 10 11 11 9 8 8 7 7 7 8 9 9 9 9 9 10 10 11 12 14 15 15 14 13 13 11 10 9 8
2 2 4 3 1 1 3 1 2 4 5 4 3 5 5 2 3 5 5 7 5 4 1 2 4 2 3 5 4 7 14 21 26 28 28 26 24 23 22 21 19 19 20 20 19 18 18 16 15 14 13 13 12 12 11 10 11 12 12 11 10 9 9 8 8 8 9 9 10 11 10 9 8 7 6 6 6 7 6 7 8 9 9 9 9 10 13 15 16 15 14 13 12 10 9 8 7
2 3 4 2 1 2 3 2 2 2 5 4 2 5 7 3 3 5 5 5 4 2 1 1 0 1 6 7 6 15 22 25 28 28 28 26 24 24 22 22 21 20 21 22 21 19 18 17 16 15 14 13 13 12 12 11 10 10 10 10 9 9 9 8 8 8 8 8 10 11 10 9 8 7 6 6 5 4 4 6 8 9 9 9 9 9 12 15 15 15 14 12 11 10 8 7 6
2 3 4 1 2 3 3 3 4 3 5 5 3 5 9 3 0 3 2 4 5 1 3 1 2 2 6 3 3 22 28 26 29 28 27 25 24 23 23 23 22 21 21 22 22 21 20 19 18 16 15 14 14 13 12 12 11 11 10 9 9 8 8 8 8 8 8 8 9 10 10 9 8 7 7 6 5 4 5 5 7 8 8 9 9 9 11 14 14 14 13 12 11 10 9 7 6
1 2 3 1 3 4 4 6 5 4 4 6 6 7 9 5 3 2 2 5 3 2 4 3 4 4 2 4 7 27 29 28 30 28 27 24 23 23 23 24 22 21 22 22 23 23 22 20 20 18 16 16 15 14 13 13 12 12 11 9 9 8 8 8 8 8 8 8 9 9 10 10 9 8 7 6 5 4 4 5 6 6 6 7 8 9 11 12 12 12 12 12 11 10 9 7 6
1 2 2 3 5 4 4 6 5 4 3 4 6 6 8 8 7 4 3 2 1 3 2 5 3 5 3 4 18 28 28 29 29 28 27 24 25 25 24 24 23 23 23 24 24 24 24 22 21 20 18 17 16 15 15 14 14 13 12 11 10 10 9 8 8 7 7 7 8 9 10 9 9 9 8 7 5 4 4 5 5 5 5 6 8 9 10 11 11 10 10 10 11 10 9 7 6
1 2 1 5 5 4 4 5 5 5 3 4 6 5 5 5 6 4 5 5 4 6 4 1 3 3 2 8 19 25 25 26 26 26 26 25 26 26 27 27 26 25 24 25 26 25 25 24 22 21 20 19 18 17 16 15 15 14 13 12 11 11 11 10 9 8 8 8 8 9 10 9 9 8 8 7 6 5 5 5 5 5 5 6 8 9 9 10 9 9 9 9 9 8 8 7 6
1 3 3 5 3 3 4 5 5 6 4 5 4 4 4 4 3 3 7 7 4 7 8 8 9 9 7 9 16 22 23 22 22 24 24 24 24 25 27 28 27 26 25 25 26 26 25 25 23 22 21 20 19 18 17 16 15 15 14 14 13 12 12 11 10 9 9 9 8 9 10 10 9 8 8 7 6 6 6 6 6 5 5 6 8 8 8 9 8 8 8 8 8 7 7 7 7
0 3 5 5 3 3 5 4 3 4 4 4 5 6 5 3 2 5 11 9 7 7 8 9 9 12 14 14 16 19 20 20 20 21 22 24 24 24 24 25 25 23 25 26 28 28 26 26 24 22 22 21 21 19 18 17 16 16 16 15 15 14 14 13 12 11 11 10 9 10 11 10 9 8 7 6 5 6 7 7 6 6 6 6 7 7 8 8 8 8 8 8 8 7 7 7 7
2 4 3 4 3 4 4 1 2 1 5 6 7 4 4 6 2 4 10 10 6 4 7 8 8 13 18 19 18 16 16 19 21 23 25 26 27 26 25 25 25 25 27 28 29 28 27 26 25 23 23 22 22 21 20 19 18 17 17 16 16 15 15 14 14 13 12 12 11 11 11 11 10 9 7 6 5 5 6 8 8 7 7 7 7 7 7 8 8 8 8 8 8 7 7 6 6
3 2 4 4 3 6 4 3 4 1 7 6 3 2 4 8 4 2 7 10 5 5 3 9 9 12 16 15 15 16 18 22 25 27 28 29 30 29 28 28 28 28 29 30 29 28 28 27 25 24 24 23 23 22 21 20 20 19 18 17 17 16 15 15 15 14 14 13 12 12 11 11 10 9 8 7 5 5 6 7 9 9 8 8 8 8 8 8 8 8 7 7 7 6 5 5 5
2 2 5 4 2 5 5 3 4 1 5 3 4 3 3 5 3 2 8 11 5 3 3 9 10 11 12 12 13 14 16 21 25 26 26 26 28 28 27 28 28 28 30 31 30 29 28 27 26 25 25 24 23 23 23 22 21 21 20 19 18 17 17 16 15 15 15 15 15 14 13 12 11 11 9 7 7 7 7 7 7 9 8 8 8 8 8 8 8 8 7 6 6 6 5 5 5
2 2 6 6 6 6 5 2 3 4 1 4 5 2 1 1 1 3 9 9 3 3 6 8 10 10 10 11 13 13 13 17 22 24 25 24 25 26 27 28 28 29 31 32 31 31 29 27 27 26 25 25 24 24 24 23 23 22 22 21 20 19 18 17 16 16 16 17 17 16 15 14 13 13 11 9 8 8 9 9 7 8 9 9 8 6 7 8 8 8 7 7 7 8 7 7 8
2 3 7 8 8 6 3 2 2 2 1 3 6 4 2 3 1 4 7 4 6 7 6 7 10 11 12 10 11 14 15 19 24 23 22 21 23 27 28 29 30 31 31 31 32 32 30 29 28 27 26 25 25 25 25 25 24 23 23 22 22 21 19 19 18 18 18 18 18 18 17 15 15 14 12 11 10 10 11 11 9 9 10 9 8 6 6 6 7 7 7 8 9 10 10 9 10
2 3 6 9 6 6 4 2 3 1 1 3 6 3 3 4 1 6 5 2 7 8 7 7 9 9 10 11 10 12 15 20 23 21 21 24 26 29 29 31 31 31 32 32 33 32 31 31 29 28 27 26 26 26 26 26 25 24 23 23 23 21 20 20 20 19 19 19 20 20 19 18 17 16 14 12 12 12 12 12 11 10 10 9 9 8 6 6 7 8 8 9 10 11 12 12 12
3 4 3 8 6 6 6 2 2 1 1 2 5 1 4 3 7 8 2 3 6 7 8 7 8 8 7 9 8 9 13 17 18 19 25 29 31 31 32 33 33 33 33 33 33 33 33 32 31 30 28 28 28 28 27 27 26 25 24 23 23 22 22 21 21 20 20 20 20 21 21 19 19 17 15 14 13 13 13 13 12 12 11 10 9 9 8 8 8 9 10 10 12 12 13 13 13
3 4 1 4 5 5 5 1 1 2 2 2 4 2 5 8 13 7 0 5 8 6 7 7 7 7 6 7 7 8 11 14 17 24 29 30 31 32 34 35 35 35 34 33 33 34 34 33 33 31 31 31 30 30 29 28 27 26 25 24 24 23 23 23 23 22 20 20 20 21 21 21 20 19 17 15 14 14 14 13 13 12 11 11 11 11 11 10 10 11 11 12 13 13 13 13 14
3 2 2 1 2 5 5 1 4 3 1 3 5 3 6 9 11 6 3 6 8 8 8 8 8 7 7 7 8 8 10 15 21 27 30 30 30 31 34 35 35 36 34 34 36 36 36 35 35 34 33 33 33 32 32 31 29 28 27 26 25 25 25 25 24 23 22 21 21 21 21 21 20 20 19 18 17 16 16 16 15 13 11 12 12 12 12 12 12 13 13 13 13 13 13 14 14
2 3 2 1 4 4 7 2 7 5 1 3 6 4 7 9 9 6 4 5 8 9 8 7 8 8 8 7 8 8 8 14 20 24 26 27 28 29 32 34 35 36 36 36 37 37 37 36 36 36 35 35 35 34 33 32 31 30 29 28 27 27 26 26 26 24 23 22 22 22 21 21 20 20 20 20 20 19 19 18 17 15 14 13 13 13 14 14 14 14 14 13 13 13 13 14 15
1 2 3 2 4 3 4 2 4 4 1 0 3 3 5 5 4 4 2 6 7 8 8 8 8 9 8 7 8 8 7 10 15 21 26 27 29 30 32 34 35 36 38 38 37 37 38 37 38 37 37 37 36 36 35 34 33 32 31 30 29 28 28 28 27 26 25 24 24 23 23 22 22 21 20 21 21 22 21 19 18 17 17 16 15 15 14 14 14 14 14 13 14 14 14 15 15
2 1 2 3 3 3 2 3 3 3 3 3 4 4 7 7 4 4 2 5 7 8 10 8 8 8 7 7 7 7 8 9 11 21 29 31 32 33 33 34 34 35 37 38 37 37 38 38 38 38 38 38 37 37 36 35 35 33 33 32 31 31 30 29 28 28 27 26 26 25 24 24 24 22 22 21 22 23 22 20 18 17 18 18 17 16 15 14 14 14 13 13 14 16 16 16 16
5 3 3 3 3 4 4 3 3 6 4 5 6 5 11 12 10 6 2 4 7 9 9 6 7 8 7 7 7 8 9 10 15 25 31 32 33 34 34 34 33 34 35 36 37 37 37 37 38 38 38 38 38 37 36 36 35 34 34 33 33 33 32 31 30 30 29 28 27 27 26 25 25 24 24 23 22 22 22 21 19 18 18 18 18 18 16 15 14 13 13 14 16 18 17 17 17
9 6 5 4 4 4 5 4 4 6 6 5 8 7 11 13 12 9 3 3 6 7 7 6 7 7 6 6 7 9 10 12 19 24 26 27 31 33 33 34 33 34 34 35 36 36 36 36 37 38 39 38 38 37 36 36 35 35 35 34 35 35 35 33 32 32 30 30 29 28 27 27 26 26 26 25 24 23 22 22 20 20 19 18 19 19 18 17 14 13 15 17 18 18 18 18 17
6 4 5 6 6 5 5 3 4 2 5 6 8 8 12 12 11 9 2 0 4 6 7 9 8 7 7 8 9 11 11 13 16 18 20 25 29 31 31 32 32 32 33 34 34 36 37 37 37 39 39 39 38 38 37 37 36 35 35 36 37 36 35 34 34 33 32 31 30 29 29 28 28 27 27 27 27 25 23 22 21 20 19 19 21 21 20 18 15 17 19 17 17 18 18 16 16
2 3 4 5 6 5 5 3 4 2 3 4 3 5 12 13 11 9 2 2 7 8 9 10 10 8 7 8 11 12 10 10 11 12 18 23 26 29 30 30 31 32 33 34 35 36 38 38 39 39 39 38 39 40 39 39 38 37 36 37 36 34 34 35 35 35 34 33 31 31 31 30 29 29 28 28 27 28 26 23 21 21 21 20 21 21 22 20 17 21 21 16 16 19 18 15 15
5 3 3 4 4 3 4 3 3 2 2 3 1 3 10 13 11 8 5 7 8 9 10 10 9 9 8 10 12 11 9 10 10 11 15 21 25 28 29 30 33 34 35 35 36 36 37 38 39 39 38 39 40 41 41 40 40 39 38 36 35 34 34 35 35 34 34 34 33 33 32 32 31 30 29 27 27 28 28 25 22 21 21 22 21 21 21 21 21 22 18 16 18 19 19 17 16
6 4 4 4 2 2 2 3 2 2 1 1 1 1 7 9 8 8 8 9 9 10 9 8 8 9 11 11 10 10 11 13 12 10 12 18 21 24 28 31 33 34 34 35 36 36 37 38 39 39 39 40 41 41 42 41 40 38 37 35 33 32 33 33 33 34 34 35 35 35 34 33 32 31 29 28 26 26 27 28 26 22 20 21 21 22 22 22 24 23 17 17 20 19 19 18 16
7 6 6 4 2 4 4 2 0 1 2 2 2 3 6 7 6 8 7 3 7 8 7 8 8 10 11 9 8 10 12 12 12 11 11 13 18 24 29 32 32 33 34 36 38 38 38 38 39 40 41 41 41 41 41 41 38 35 34 32 28 28 29 28 29 33 35 35 36 36 35 34 33 31 30 29 27 25 24 26 27 25 23 22 21 20 23 23 22 21 17 18 22 21 21 20 17
6 6 7 6 5 5 3 1 2 0 3 1 1 2 5 5 5 9 6 3 7 6 5 10 11 10 10 9 10 12 11 10 10 11 10 12 17 22 26 30 31 33 36 37 38 39 39 39 39 40 41 41 40 40 40 40 39 36 34 31 28 27 27 28 32 35 34 33 34 34 33 33 32 31 30 29 28 26 24 23 25 27 26 25 22 19 21 21 20 20 19 21 23 22 22 20 18
5 6 8 8 7 5 4 4 3 2 4 2 1 4 6 6 5 8 4 5 9 7 5 10 11 9 9 10 12 11 10 10 9 10 9 11 16 18 22 27 31 34 38 38 38 38 39 39 39 40 40 40 40 40 40 39 39 37 36 35 34 32 30 32 34 33 30 30 30 30 31 31 31 30 30 30 29 28 26 24 25 26 26 25 24 23 23 23 20 18 19 21 21 21 21 20 19
5 5 9 10 7 7 7 7 5 4 2 2 1 3 4 5 6 6 3 4 10 10 9 10 10 10 10 11 12 12 11 11 10 10 10 12 16 19 24 29 34 38 39 38 37 37 38 39 39 39 40 40 40 39 39 40 39 38 37 37 36 35 34 34 32 28 27 27 26 27 28 29 29 29 29 29 29 28 27 25 24 25 26 24 21 22 22 20 19 18 19 20 19 19 20 19 18
6 4 8 8 7 7 7 7 4 1 1 3 3 3 3 6 6 4 3 3 9 10 10 11 10 11 10 11 12 11 11 10 10 11 11 12 17 24 29 31 34 38 37 36 37 37 38 38 38 38 38 39 39 38 39 39 40 39 38 37 35 35 34 32 28 25 25 24 24 25 26 27 28 27 27 28 28 28 27 26 24 23 23 23 21 21 21 18 15 17 19 19 19 19 17 16 17
4 5 7 5 4 4 4 6 4 1 3 7 6 5 4 5 6 4 2 3 7 9 9 9 9 8 8 9 11 10 9 8 9 10 10 14 20 25 27 27 29 32 33 33 34 34 34 35 36 37 37 38 38 38 38 39 40 39 38 37 36 34 32 30 27 24 23 22 23 24 24 25 26 26 27 26 26 27 26 24 24 23 18 19 23 24 24 21 16 14 17 18 19 17 16 18 19
5 6 6 6 4 4 3 2 3 2 6 7 6 5 3 5 6 4 4 5 7 8 9 9 8 7 7 8 9 9 8 8 9 9 10 14 19 21 20 22 24 26 28 29 30 30 31 32 34 35 36 37 37 38 38 39 39 39 38 37 36 34 32 29 27 25 23 22 22 23 24 24 25 26 26 25 25 25 24 22 23 24 18 16 18 17 18 18 15 14 16 17 17 15 17 18 17
7 5 4 4 2 2 3 3 2 4 7 5 3 2 3 5 6 4 6 7 7 8 9 10 8 7 7 7 7 7 7 7 7 7 8 10 12 15 17 20 23 23 23 26 29 30 30 31 32 33 35 35 36 36 37 37 37 38 38 37 36 34 32 30 29 28 26 25 24 24 24 23 24 24 24 24 23 21 22 22 20 20 21 23 23 16 12 12 14 17 18 18 18 17 17 15 12
6 4 6 5 0 0 2 2 2 5 5 2 2 1 3 7 6 7 11 11 10 9 8 9 8 7 8 7 6 5 5 6 6 6 7 6 7 10 13 16 18 20 22 24 27 29 30 30 31 32 33 33 33 34 35 35 36 37 37 36 35 34 32 31 30 29 28 27 27 25 24 24 23 23 23 23 21 18 19 21 20 19 21 23 23 18 15 15 18 19 17 16 15 12 11 9 7
6 5 6 6 3 3 6 4 1 4 4 2 2 1 3 5 4 11 15 14 13 10 8 9 9 8 9 7 6 6 5 4 5 5 5 5 5 7 9 10 11 14 17 20 23 26 27 28 29 30 31 30 30 31 32 33 34 35 35 35 35 34 32 31 30 29 29 28 28 27 26 26 24 24 23 22 19 17 16 18 22 22 17 15 17 17 18 18 16 11 7 6 5 4 5 4 3
5 4 5 5 5 5 6 3 3 4 3 2 2 2 4 3 3 9 12 11 10 7 7 8 8 9 8 7 6 6 6 5 4 4 4 4 6 7 8 8 8 9 11 13 16 20 23 25 27 28 28 28 28 29 30 31 32 33 33 33 33 33 32 30 29 29 28 28 28 28 27 26 24 23 22 19 16 16 17 18 19 19 16 17 18 16 14 12 8 6 4 3 3 2 2 1 1
4 3 5 5 5 5 3 3 5 5 1 2 3 3 4 4 6 9 7 7 8 7 7 6 7 8 6 6 7 6 6 5 4 4 4 5 5 6 7 8 8 8 8 10 11 14 18 21 23 25 26 26 27 27 28 29 30 31 32 32 31 31 30 28 28 27 27 27 27 27 26 25 24 22 19 16 14 15 17 17 15 13 13 14 12 9 8 8 7 5 4 4 4 4 2 0 0
2 3 5 6 3 7 4 2 0 3 2 4 2 3 5 3 7 10 5 5 8 7 6 6 8 7 5 7 8 6 6 5 5 4 4 5 4 4 6 7 7 7 8 9 10 11 12 15 18 20 22 23 24 26 27 27 28 29 29 29 29 28 28 28 27 27 26 26 26 26 25 23 22 19 16 14 14 13 13 13 14 11 9 9 9 9 7 5 3 3 5 5 4 4 4 4 3
5 4 7 3 2 3 4 2 1 1 4 5 0 4 4 2 4 7 7 7 10 9 7 6 7 5 5 8 7 7 7 5 5 4 4 4 3 3 4 5 5 5 5 6 9 10 10 11 13 15 17 19 21 22 23 24 24 25 25 25 26 26 27 27 27 26 25 25 25 23 21 20 18 16 15 15 15 15 13 12 12 10 7 5 4 4 5 7 8 7 6 7 5 5 5 4 5
5 5 5 4 3 3 1 3 3 3 4 4 3 3 4 5 5 5 6 8 10 10 7 5 7 6 7 8 8 8 6 5 5 5 4 3 2 3 4 4 4 4 4 4 6 8 9 10 11 12 13 14 15 16 17 18 18 20 21 22 23 23 24 24 24 24 23 23 22 20 18 18 17 16 16 17 17 17 15 12 10 10 10 11 10 9 9 9 8 7 6 7 7 7 7 5 4
2 1 3 2 3 5 3 3 4 4 5 4 3 4 4 6 6 6 10 11 9 9 7 7 9 9 8 8 7 7 6 6 6 5 3 2 2 4 5 4 4 4 4 4 5 5 7 9 10 11 11 11 12 13 14 15 15 17 18 19 20 20 21 21 21 21 20 20 19 19 19 20 19 18 17 17 17 16 15 13 12 12 12 12 11 10 7 6 7 7 7 7 7 7 6 5 3
3 2 5 3 0 2 2 1 3 4 4 3 2 5 6 5 6 10 14 14 11 9 7 7 8 8 8 8 7 6 6 6 5 4 4 3 3 5 5 5 5 5 5 5 5 5 6 8 9 11 12 13 13 14 14 15 16 16 17 17 18 18 19 19 19 19 20 20 21 21 21 20 18 17 16 16 15 14 13 12 11 11 10 9 9 8 7 8 8 9 9 8 8 7 6 7 5
6 5 7 6 2 3 2 4 2 2 3 4 3 6 8 5 6 10 14 13 10 7 7 7 7 7 8 8 7 7 5 5 4 4 4 3 4 6 7 7 7 7 6 6 6 7 8 9 9 11 13 14 15 16 16 16 16 17 16 17 17 17 18 19 20 21 22 23 23 21 20 18 16 15 15 15 14 13 12 11 11 11 10 10 9 10 10 10 10 11 11 10 10 9 9 9 8
Wind_Direction
349 350 347 347 347 344 1 53 70 322 71 69 306 159 228 199 188 169 146 225 43 338 300 59 72 90 107 129 153 159 135 157 166 141 203 240 149 155 162 158 155 151 145 143 148 146 138 134 134 134 130 129 131 130 130 122 115 112 108 107 103 102 101 97 98 96 93 92 91 89 88 89 91 91 89 88 87 86 85 84 83 83 85 88 93 92 88 85 83 81 82 85 87 87 84 82 80
349 351 353 356 4 16 300 67 87 332 41 18 291 165 254 305 147 186 191 203 166 147 107 100 92 80 72 97 119 104 54 328 172 157 211 147 146 155 161 160 158 151 147 146 147 144 142 144 141 136 131 131 135 133 131 123 117 116 112 112 109 106 106 104 102 99 99 99 98 96 94 93 94 93 89 90 88 88 88 86 85 86 87 89 96 97 91 87 86 86 87 89 89 87 84 82 81
349 354 5 8 22 39 68 41 78 49 47 285 278 245 246 150 186 209 218 211 155 148 140 108 87 77 58 65 61 81 97 318 140 152 130 145 149 158 163 163 159 153 149 147 145 144 146 147 137 132 131 136 140 136 133 125 120 120 117 116 115 112 111 109 103 100 100 99 98 98 98 97 97 97 95 95 93 92 91 90 89 89 89 91 97 98 94 91 89 89 90 90 89 88 86 84 83
348 359 9 32 60 33 64 40 123 118 32 232 257 265 230 179 196 219 232 202 150 144 166 68 51 1 65 91 47 77 159 307 144 164 142 157 162 160 163 163 159 154 150 146 144 145 145 142 135 136 137 138 141 137 134 130 126 124 121 120 119 116 113 111 105 102 105 103 99 97 98 98 99 100 102 101 99 98 97 97 94 93 93 94 98 98 96 93 91 90 91 91 91 90 88 84 83
347 11 18 56 91 30 88 65 114 104 242 195 188 261 238 196 187 197 205 201 206 220 233 92 76 298 58 110 111 128 194 126 151 170 147 165 167 160 163 164 160 154 150 147 146 147 145 140 139 143 138 138 143 138 136 134 133 129 126 126 123 118 115 114 110 105 108 109 103 101 99 100 101 100 101 100 101 100 99 100 98 98 97 98 101 99 97 95 93 92 92 92 92 92 89 85 84
357 40 34 61 91 116 114 37 193 218 239 171 177 255 225 196 179 169 162 241 270 257 231 110 129 159 66 23 87 151 177 116 157 171 158 164 164 162 165 165 161 154 151 149 150 150 146 143 143 145 141 141 145 141 140 139 139 136 135 133 127 119 117 119 117 112 111 113 109 107 107 105 104 103 103 101 100 99 98 99 101 100 98 103 104 101 98 96 96 95 94 94 93 91 89 86 85
18 25 26 62 62 30 106 184 208 237 247 174 183 223 198 193 177 153 150 174 243 266 341 118 144 112 86 321 92 159 360 127 161 170 168 164 163 165 167 167 161 154 152 152 154 153 149 147 145 148 149 148 149 149 145 142 144 141 139 134 126 121 124 127 124 118 113 116 116 111 110 108 107 107 105 103 101 99 100 100 102 102 102 107 106 101 99 98 99 98 96 94 91 89 89 88 87
25 21 1 86 62 19 98 180 227 220 235 216 216 205 186 186 169 149 164 160 173 238 66 170 149 90 78 10 110 268 340 153 164 170 172 163 163 167 170 169 161 156 155 155 156 155 152 151 150 152 156 156 154 155 151 146 147 145 142 135 130 130 135 132 125 123 117 117 121 113 112 112 110 109 104 100 98 100 102 102 103 104 105 109 108 104 101 101 102 101 99 95 93 92 90 90 89
28 31 322 93 123 48 56 287 272 242 251 261 240 206 182 178 163 150 162 157 155 155 151 202 173 103 167 47 108 287 8 149 159 167 171 165 166 168 172 171 165 159 156 158 159 158 156 154 155 154 158 162 157 154 155 149 148 149 146 141 140 142 139 132 128 129 123 118 118 115 114 114 110 105 101 98 98 101 102 101 101 101 103 107 109 109 107 105 105 104 104 100 98 97 95 93 91
29 21 145 89 122 113 339 280 276 263 258 259 230 198 172 172 166 161 154 159 161 142 186 208 84 107 138 94 230 320 97 153 154 162 168 167 168 171 174 174 170 163 158 161 163 161 158 156 157 156 156 160 157 154 159 154 151 151 149 148 146 147 143 134 134 133 130 124 121 125 121 114 111 108 107 104 103 105 102 102 103 102 101 104 111 112 112 111 108 107 107 104 102 100 98 95 92
36 351 98 86 90 155 231 240 269 267 279 294 263 216 171 157 137 178 150 146 151 135 193 153 86 122 107 55 234 335 162 159 159 163 166 167 170 174 175 174 174 168 163 163 165 164 159 159 161 159 154 155 157 156 161 158 154 153 151 152 148 151 150 142 139 135 136 130 126 136 132 120 119 120 117 110 108 108 105 105 105 104 103 104 111 115 118 117 114 113 110 108 105 100 97 93 90
93 334 65 98 142 188 205 207 264 279 314 319 217 239 160 136 124 184 175 155 160 144 205 196 141 139 87 329 248 336 165 166 168 165 166 169 171 175 176 174 176 174 168 166 167 167 161 162 164 164 158 155 157 157 162 162 158 156 154 155 155 160 160 153 143 135 135 131 132 140 139 133 130 129 122 118 114 111 110 112 110 108 108 109 114 120 124 123 121 121 117 112 107 103 99 94 89
120 132 89 130 185 179 168 176 272 310 323 269 204 223 135 140 187 198 168 145 165 152 226 206 143 112 94 244 269 297 178 175 170 167 169 171 172 175 177 175 177 178 174 171 170 170 167 165 166 168 164 158 160 161 165 168 167 164 160 164 169 173 169 158 142 134 136 139 142 143 144 146 143 138 130 128 124 120 122 123 118 114 114 116 118 120 125 126 128 129 125 119 111 108 105 99 92
137 144 119 158 173 135 157 162 277 198 259 252 207 165 138 173 209 187 148 135 195 194 226 187 142 113 102 209 296 263 192 179 169 169 172 171 174 176 178 177 177 179 179 177 174 173 171 169 170 171 169 165 164 165 166 169 171 172 171 174 177 176 165 153 139 134 138 144 147 145 148 151 150 146 137 133 129 125 129 132 125 121 120 121 122 123 131 134 134 134 130 126 119 113 110 105 98
164 122 96 119 27 336 190 199 198 175 237 228 176 155 154 232 141 158 176 153 211 253 143 133 145 147 160 163 219 215 184 175 169 169 170 172 176 178 181 180 179 182 183 183 178 177 175 172 174 173 175 172 170 168 167 167 169 174 173 173 173 165 154 146 141 138 136 139 145 149 152 152 152 150 142 135 129 125 129 138 132 125 123 123 127 130 137 140 139 138 136 132 126 121 116 111 106
128 98 71 97 210 254 215 187 122 161 247 219 172 141 155 260 124 157 239 157 159 298 59 155 173 352 168 173 214 188 171 168 167 168 169 171 176 180 184 182 183 186 186 187 183 181 179 177 177 177 178 177 177 173 170 170 168 171 168 165 162 154 149 147 147 146 142 142 149 157 161 161 161 159 155 148 137 127 120 132 135 132 132 133 134 134 140 143 143 144 142 140 135 131 127 120 113
80 83 75 65 192 210 207 177 163 178 241 228 223 160 157 240 258 172 291 85 125 75 13 247 305 6 174 250 230 167 163 162 164 166 166 168 173 176 180 183 184 185 187 189 187 185 183 182 180 180 182 181 182 179 176 174 173 176 175 168 160 157 155 153 154 153 151 150 156 165 170 172 173 171 167 161 150 129 111 118 131 134 137 143 143 139 143 145 145 147 148 148 145 142 139 132 124
21 87 126 205 190 197 185 178 192 182 219 213 206 178 158 181 193 186 61 53 62 71 3 327 335 353 230 290 150 155 157 159 162 164 165 167 171 173 176 180 182 186 188 189 190 188 186 187 184 183 186 185 185 184 182 179 179 182 184 182 172 170 168 166 164 160 160 157 160 168 173 177 179 180 178 174 165 144 122 113 122 127 129 137 142 141 144 149 149 152 154 155 154 154 152 145 137
113 124 153 225 201 211 200 183 197 198 230 208 198 187 174 183 171 156 152 181 169 129 332 338 349 350 11 134 146 152 156 159 163 165 167 171 174 176 177 179 184 188 190 190 191 190 190 191 188 188 189 189 188 189 187 184 184 185 187 190 185 184 182 180 177 171 169 163 165 170 172 175 178 182 184 185 180 168 148 132 130 127 123 126 137 145 149 155 158 159 162 163 164 166 166 164 157
172 146 198 245 213 242 240 199 219 225 216 180 199 191 187 195 158 152 162 173 206 188 202 196 208 235 134 146 152 154 157 161 167 168 171 176 179 181 180 181 186 190 192 192 192 193 194 195 194 192 193 193 192 192 192 190 189 189 190 192 192 193 192 191 187 182 178 171 170 172 174 173 175 182 186 191 193 190 178 162 154 141 136 140 148 156 159 163 166 169 172 173 174 176 179 182 181
186 160 200 242 203 267 250 197 237 246 206 181 182 150 181 211 152 150 142 145 238 234 212 195 189 183 163 163 161 160 162 165 170 172 175 178 182 185 186 187 189 191 193 193 194 195 195 197 199 197 197 198 197 197 197 197 195 193 194 195 197 197 197 198 195 190 186 180 174 171 172 172 173 178 184 191 198 203 198 186 178 167 158 158 163 167 167 169 171 173 178 179 179 181 184 187 190
181 243 227 238 193 262 256 191 234 247 185 152 153 166 177 168 140 164 158 171 224 223 210 204 184 167 165 168 166 167 170 172 174 177 179 181 185 188 191 192 192 193 194 195 197 197 197 198 201 201 200 202 203 203 202 202 202 200 200 199 200 201 201 202 200 198 195 192 186 179 175 175 176 177 182 188 197 209 209 204 199 192 183 177 180 180 175 174 173 175 180 182 182 182 184 186 191
206 275 277 263 219 244 278 341 291 217 152 162 178 195 146 143 202 184 180 201 223 233 202 185 181 173 166 163 165 171 176 180 182 184 184 184 187 190 192 193 194 195 196 198 198 198 199 199 201 204 204 206 208 208 207 207 207 207 207 204 205 205 204 204 204 203 202 202 201 197 190 186 185 185 190 195 203 210 209 210 209 209 205 195 194 195 190 184 181 181 186 190 191 190 189 191 195
185 264 307 297 218 230 277 340 322 182 171 192 181 145 151 177 204 136 207 228 254 303 206 155 162 165 160 161 171 179 182 187 189 189 189 188 190 192 193 195 196 198 198 200 199 199 199 199 201 204 207 209 210 211 212 212 212 212 210 211 211 210 211 210 209 207 207 209 210 210 206 201 199 199 201 206 215 216 214 214 211 215 215 204 201 202 201 197 196 196 198 205 208 210 211 210 213
160 241 289 309 235 252 287 328 2 34 182 157 106 143 192 194 174 149 228 241 263 321 127 137 145 154 163 173 180 185 188 191 194 193 192 192 192 192 195 198 198 200 201 201 201 201 200 199 201 203 207 208 211 213 214 215 215 215 214 214 215 214 217 217 215 213 213 215 216 217 216 213 212 210 210 215 225 226 222 217 211 211 208 203 200 201 206 206 209 213 221 231 236 244 248 249 254
126 275 291 302 285 292 314 317 24 17 231 125 134 198 302 230 181 248 240 229 210 95 127 143 147 162 178 182 185 188 192 196 197 196 195 193 192 193 198 199 200 202 204 204 203 204 202 201 202 203 206 208 211 214 215 216 215 217 217 216 217 218 221 221 219 218 218 220 222 223 223 222 221 220 218 221 232 236 229 224 216 206 205 205 202 205 213 213 219 228 239 250 258 265 265 266 270
106 343 299 287 281 296 327 292 308 360 334 152 169 203 290 309 327 259 257 207 134 114 137 160 162 176 185 187 192 191 195 200 199 197 195 194 194 197 199 200 203 205 205 205 206 208 206 204 205 206 207 210 213 216 218 218 217 219 219 219 219 220 223 223 222 222 222 223 226 228 229 229 227 226 226 230 239 241 236 232 224 214 215 217 216 218 221 223 231 240 252 262 266 269 268 267 269
75 22 311 289 293 292 287 281 280 305 69 156 148 170 299 344 291 236 258 144 130 133 153 177 183 189 190 190 194 194 201 205 200 196 196 199 200 200 201 202 204 205 206 207 208 210 209 209 209 209 210 213 216 219 221 221 221 221 222 223 223 223 225 225 224 223 223 225 227 229 231 232 230 230 231 237 243 243 241 237 234 230 227 228 232 233 237 244 248 256 266 275 280 276 272 272 274
77 73 332 297 325 292 259 242 277 183 163 168 126 106 302 276 234 241 266 128 118 124 163 188 198 201 199 196 196 201 208 205 201 204 206 206 205 204 205 207 205 206 208 209 210 211 213 213 213 213 214 215 218 221 223 224 225 224 224 226 226 226 225 225 226 225 224 225 226 229 232 234 235 235 234 237 242 244 243 240 240 241 238 238 241 244 249 256 261 268 276 284 289 283 277 278 279
94 95 135 290 326 293 259 210 87 137 162 153 134 226 266 243 239 248 225 145 120 129 184 196 204 206 204 203 204 210 209 202 204 210 213 211 209 208 209 210 209 209 210 210 211 213 214 215 216 216 216 217 220 222 225 227 228 227 227 228 229 229 227 227 228 228 228 225 226 230 233 236 238 240 238 236 239 243 244 243 245 249 251 248 246 250 253 260 267 271 279 285 288 284 280 279 280
101 133 159 208 253 271 286 247 131 148 207 105 122 215 253 250 251 259 232 175 152 174 201 201 207 211 206 208 209 216 212 208 212 214 215 215 213 212 213 213 212 212 212 212 214 215 216 216 217 217 217 219 220 222 225 228 230 230 230 231 231 231 230 230 231 231 230 228 228 229 231 235 239 242 242 239 238 241 245 247 248 252 256 255 254 256 257 263 268 270 277 282 284 282 281 282 284
118 173 206 190 195 261 304 257 160 168 262 86 127 206 263 265 263 273 246 192 180 195 205 205 211 215 213 214 214 219 222 220 223 225 223 221 219 217 217 216 215 214 214 214 216 216 217 218 218 218 219 220 221 223 226 228 231 232 232 233 233 233 233 233 234 234 234 232 231 231 232 234 237 241 243 242 241 242 245 248 251 253 254 256 257 257 259 264 267 270 275 278 281 282 285 288 288
185 174 218 209 183 246 311 274 203 176 132 79 170 210 266 269 264 308 294 190 194 210 215 212 213 219 217 216 219 220 226 228 232 232 229 226 223 221 220 220 218 217 216 216 217 217 217 218 219 220 220 221 222 224 226 228 230 232 233 234 235 236 236 236 237 237 237 236 235 235 235 236 238 241 243 245 245 245 246 249 252 251 251 253 255 255 259 264 267 268 271 275 279 282 286 289 291
223 127 222 239 192 211 251 255 243 163 146 210 204 220 245 255 265 310 325 180 189 218 225 219 217 223 222 220 225 225 224 227 230 229 226 224 223 223 222 222 221 220 219 218 218 219 219 219 220 221 222 223 224 225 226 227 229 232 233 235 236 238 238 238 238 238 238 238 238 238 237 238 240 241 243 246 248 248 247 249 250 250 249 249 250 252 255 263 265 265 271 279 279 279 282 287 292
187 173 192 237 229 218 231 246 212 163 165 207 193 225 251 262 271 266 244 165 188 220 233 235 230 228 229 226 227 228 227 230 232 228 225 222 222 223 222 223 223 222 221 220 220 221 221 221 221 222 222 223 224 225 226 227 228 230 231 233 235 237 238 238 237 237 238 239 240 240 239 241 241 241 243 245 249 251 249 250 251 250 248 246 248 249 252 258 259 264 278 281 277 276 278 285 292
176 181 179 194 216 232 230 243 248 177 163 209 199 215 245 251 259 253 233 156 192 226 249 249 240 232 229 231 231 231 229 233 236 233 229 225 224 223 222 222 223 223 222 221 221 221 221 221 221 222 222 222 222 222 223 223 224 225 227 229 231 233 234 235 236 237 238 240 241 242 242 241 242 242 242 243 246 249 251 253 254 252 247 244 245 246 251 255 260 277 280 275 275 277 281 290 298
169 178 190 201 208 236 237 231 289 217 167 225 213 217 247 247 255 261 257 144 232 237 240 238 237 230 224 228 233 233 231 238 245 243 237 231 228 226 224 223 223 223 223 222 221 220 221 221 221 222 222 221 220 219 219 219 218 220 221 224 227 229 230 232 234 236 238 241 242 242 243 243 242 242 242 243 244 245 249 254 255 252 245 243 243 246 251 252 264 275 267 266 278 282 286 291 294
211 198 203 220 213 231 249 228 310 331 173 252 240 218 255 257 258 267 239 220 251 236 227 233 230 225 226 228 234 237 238 248 253 246 238 232 229 226 224 223 221 222 222 221 221 221 221 222 222 223 222 220 220 220 220 220 220 220 221 223 226 227 229 231 233 235 237 240 241 241 242 244 243 242 242 242 244 245 246 251 255 253 248 246 243 245 247 247 261 267 260 265 279 278 276 275 280
245 221 193 222 223 251 286 283 325 3 171 274 320 203 256 264 260 263 235 221 244 236 226 229 221 221 229 227 233 237 242 250 246 240 236 230 227 224 221 221 221 221 222 221 221 222 222 222 222 223 222 221 221 222 221 222 223 224 225 227 228 229 231 234 236 238 239 240 241 241 242 243 244 244 242 242 245 246 245 248 254 256 255 253 250 249 247 246 255 258 256 266 270 270 270 270 277
237 214 189 218 203 177 278 297 326 20 80 212 148 235 268 272 273 269 241 224 245 250 239 236 222 219 227 228 230 227 230 240 239 236 235 229 225 221 218 219 220 220 221 221 220 221 221 221 222 222 222 222 223 222 222 224 225 226 227 229 231 232 234 237 238 240 240 240 240 241 241 242 243 244 243 242 243 245 247 247 250 253 257 257 255 258 256 254 255 251 250 262 263 264 268 270 273
235 219 197 200 186 196 232 273 320 349 351 106 93 336 292 267 270 267 255 242 259 257 249 252 242 229 237 246 242 227 225 231 233 233 229 223 220 218 218 218 218 219 219 220 219 219 221 221 222 222 222 223 223 223 223 223 224 223 223 225 227 230 232 233 235 236 237 238 239 240 241 241 242 244 244 244 244 245 247 248 249 251 254 253 250 259 261 259 260 255 253 262 261 261 265 266 265
241 229 198 192 203 214 216 167 93 21 289 293 89 290 281 287 275 253 262 310 276 257 237 247 247 238 238 246 245 236 232 232 231 234 228 221 221 221 220 218 217 218 220 220 221 221 221 222 223 223 223 223 223 223 223 222 220 219 217 216 217 220 223 226 229 233 233 234 237 240 242 242 243 243 245 246 246 247 248 248 248 248 252 251 248 257 257 250 254 256 258 262 261 262 262 260 259
237 226 189 192 206 199 175 160 148 193 249 289 97 204 256 305 283 247 273 308 278 272 260 251 248 243 234 233 240 239 237 236 234 238 231 224 223 221 222 220 217 220 222 222 222 222 221 222 223 223 223 223 223 223 222 221 218 217 217 217 218 218 221 227 231 234 234 235 237 240 242 244 244 244 244 245 245 247 248 249 249 250 252 251 251 257 251 243 247 253 258 262 264 266 261 255 255
235 222 172 177 186 187 184 176 190 216 233 315 39 163 235 275 257 256 322 308 282 281 270 260 250 240 235 234 238 237 232 229 227 231 227 221 219 217 219 221 220 223 224 223 221 222 221 221 222 223 224 224 224 223 221 220 218 217 218 219 220 221 224 230 233 235 236 238 239 240 242 245 246 246 245 244 244 245 247 248 249 252 252 248 252 258 252 246 249 252 257 259 260 264 263 259 259
237 197 151 163 169 175 181 174 197 230 166 261 258 153 207 261 268 296 345 274 274 276 263 257 250 240 237 239 242 240 236 228 224 227 225 221 218 218 221 223 223 225 224 223 223 223 223 222 222 222 224 224 223 223 221 221 220 219 219 219 221 224 227 231 233 235 238 239 240 242 243 245 246 248 246 245 244 245 247 249 250 253 253 251 250 248 242 239 246 254 257 257 258 263 266 263 258
224 146 107 83 96 102 132 160 160 109 211 230 217 182 211 264 273 284 311 255 257 265 261 253 249 245 240 244 248 246 241 232 227 229 227 225 223 223 225 226 227 227 225 225 225 224 223 222 221 221 222 223 223 224 223 223 222 220 220 221 222 225 227 229 231 234 236 237 240 242 243 244 244 246 247 247 245 244 247 251 252 248 248 254 253 249 242 238 241 251 254 261 265 264 263 260 256
129 108 80 56 52 62 73 111 105 140 236 240 219 197 210 267 266 240 225 224 223 239 261 261 259 269 258 249 249 246 242 234 229 232 233 233 232 232 231 230 231 230 228 226 225 225 224 223 222 221 222 223 223 223 223 224 223 222 222 222 224 225 226 227 228 230 232 234 237 240 242 243 243 245 248 249 247 245 245 249 253 250 244 246 249 251 251 245 241 244 249 259 263 257 260 263 264
126 101 107 93 14 33 47 6 73 193 238 260 253 195 173 240 253 241 235 237 229 228 247 258 261 277 276 264 256 247 243 242 236 234 236 236 237 234 230 231 232 229 226 225 223 224 223 222 222 222 222 222 222 223 223 223 224 223 224 224 225 226 226 226 227 228 230 232 236 241 241 239 240 243 245 247 247 245 244 244 247 251 250 243 237 236 241 239 237 240 246 255 259 259 263 268 272
151 122 136 144 283 110 193 248 204 222 245 268 264 178 198 240 249 260 259 255 251 234 227 244 251 265 278 281 277 264 252 246 240 238 235 231 229 224 222 227 228 224 222 222 222 221 221 222 221 221 222 222 221 222 222 223 223 224 225 225 226 227 227 228 228 229 232 235 238 240 239 238 238 238 240 244 244 240 244 245 239 241 251 251 245 237 233 236 240 244 250 258 263 264 267 270 277
168 152 157 165 158 169 205 233 264 249 258 264 256 207 246 276 258 245 248 250 252 241 226 235 238 247 264 279 290 294 290 265 242 247 243 230 225 217 214 218 218 218 220 221 221 220 220 220 220 221 222 222 221 221 222 223 224 226 227 227 227 227 228 229 230 231 234 237 239 240 241 242 241 241 243 244 241 233 236 246 243 238 241 252 253 247 244 245 243 238 237 248 253 255 266 272 279
189 164 144 164 171 177 203 211 203 224 256 275 261 207 202 208 234 236 238 254 266 256 243 244 243 246 259 281 289 284 285 278 256 258 255 243 240 226 217 213 210 211 215 219 221 221 220 220 220 221 221 221 221 221 222 223 224 226 228 228 229 228 229 230 231 234 236 238 240 241 242 244 244 246 247 244 238 229 229 237 245 243 237 243 249 246 242 231 206 184 184 208 217 212 242 256 261
214 143 135 196 189 151 157 188 185 178 198 248 223 227 212 202 274 274 252 259 267 258 256 255 253 254 254 267 269 257 261 269 263 265 266 262 252 236 227 221 217 217 216 216 217 217 219 220 221 222 223 223 223 222 223 225 226 227 228 228 229 228 229 230 231 234 237 239 241 242 242 243 244 244 241 235 225 225 232 229 228 234 231 226 218 202 194 178 161 168 189 196 193 187 195 196 144
178 136 189 224 162 114 125 207 225 103 199 246 202 245 289 308 286 288 290 279 268 256 249 240 246 254 244 244 247 242 243 249 254 256 261 268 249 220 223 221 219 224 228 226 219 215 216 217 218 219 220 221 222 223 224 225 225 225 225 226 227 227 228 229 232 234 235 237 238 240 240 239 236 231 221 211 205 209 219 207 191 187 181 168 158 160 172 184 204 221 206 195 187 198 239 262 253
143 184 202 195 99 104 118 171 350 84 221 268 247 223 274 264 254 300 322 287 268 257 242 242 258 255 232 238 238 237 240 244 263 265 256 261 229 180 188 201 208 214 223 225 218 215 214 213 214 213 213 214 216 218 220 221 222 222 223 224 224 226 228 230 232 233 233 233 232 231 230 224 217 208 197 191 191 192 188 177 167 166 173 183 186 196 225 245 251 248 230 220 214 214 229 245 254
159 196 183 139 176 209 137 157 191 191 224 275 306 262 251 204 215 296 292 254 252 256 244 235 250 237 225 238 238 239 248 252 262 258 241 238 196 158 159 172 188 191 194 200 203 210 213 212 212 209 209 209 209 210 212 214 217 219 221 222 222 223 224 226 227 226 226 224 222 217 210 202 193 187 185 185 186 188 186 183 186 199 221 234 236 241 249 245 235 223 211 209 208 209 208 208 231
73 130 178 153 176 187 177 166 170 181 213 245 297 298 254 215 203 224 247 246 240 246 241 222 228 225 220 229 229 231 234 233 239 230 206 190 160 153 152 160 168 167 170 171 178 189 195 201 203 202 202 200 199 200 200 201 203 206 209 210 212 213 213 215 216 215 212 208 203 195 187 181 177 176 180 181 183 186 186 188 194 203 212 216 222 233 233 212 196 187 183 183 187 195 191 179 182
152 157 187 194 51 151 175 181 133 145 185 195 249 271 256 235 200 202 228 243 235 224 223 226 230 227 227 230 227 228 225 224 229 202 176 168 152 142 139 148 151 152 158 159 165 170 170 177 185 191 193 191 189 189 188 190 188 190 194 193 194 198 199 200 197 194 190 183 179 176 172 170 168 170 175 177 177 178 179 183 186 190 193 195 207 213 198 190 188 179 173 171 168 165 152 140 134
175 180 187 179 138 112 162 235 213 116 174 177 187 254 260 235 200 202 217 233 238 217 202 226 243 235 235 237 226 225 226 217 202 167 159 150 133 129 133 143 149 155 162 163 166 168 165 167 169 175 181 181 182 181 179 179 176 175 178 176 177 180 181 181 178 176 174 170 169 169 169 169 166 166 169 173 174 174 176 182 182 183 186 188 194 192 184 180 174 162 150 143 140 137 133 126 120